sat.trackr.live / text

‹ back to catalog

STARLINK-11602 [DTC]

NORAD 63183 · 2025-048A

PAYLOAD ACTIVE UNKNOWN

§ Identity

Operator
Country
US
Launch date
2025-03-13
Launch site
AFETR
Launch vehicle
Mass (kg)
RCS (m²)

Purposes: comms

External: N2YO · Heavens-Above · Gunter

§ Orbital elements

Epoch: 2026-05-24T21:36:26.194752Z

Period
91.67 min
Inclination
43.0004°
Eccentricity
0.0002851
Mean motion
15.70904659 rev/d
Perigee alt
354.4 km
Apogee alt
358.2 km
Semi-major
6,734.4 km
B*
1.2843e-3
RAAN
220.8369°
Arg perigee
284.8313°
Mean anomaly
75.2239°
Rev number
7,012

§ Raw data

STARLINK-11602 [DTC]1 63183U 25048A   26144.90030318  .00168198  00000+0  12843-2 0  99932 63183  43.0004 220.8369 0002851 284.8313  75.2239 15.70904659 70123

JSON: /api/v1/satellites/63183 · /tle

For live sub-satellite position, see the globe view (requires WebGL).

§ Visibility from observer

Set your observer location to see the next 7 days of passes ≥ 10°. The values pass through the URL so the page stays shareable.

No JS? Fill the form by hand. The geolocation button needs JavaScript.